Precipitable_Water
1.41 1.37 1.34 1.37 1.33 1.36 1.17 0.95 0.82 0.83 0.76 0.68 0.64 0.63 0.62 0.59 0.59 0.61 0.57 0.66 0.53 0.38 0.41 0.45 0.44 0.33 0.34 0.33 0.25 0.29 0.28 0.25 0.23 0.18 0.19 0.20 0.21 0.25 0.24 0.27 0.25 0.25 0.23 0.23 0.25 0.19 0.13 0.36 0.34 0.24 0.33 0.39 0.38 0.39
1.35 1.32 1.28 1.32 1.30 1.26 1.04 0.86 0.80 0.80 0.77 0.70 0.68 0.65 0.62 0.59 0.57 0.56 0.49 0.62 0.66 0.49 0.40 0.56 0.55 0.58 0.53 0.49 0.36 0.37 0.29 0.28 0.25 0.20 0.21 0.22 0.19 0.22 0.21 0.17 0.32 0.22 0.28 0.25 0.25 0.24 0.34 0.40 0.37 0.42 0.42 0.39 0.40 0.41
1.28 1.23 1.23 1.30 1.30 1.18 0.97 0.81 0.79 0.78 0.77 0.70 0.67 0.66 0.65 0.63 0.62 0.61 0.55 0.63 0.63 0.49 0.45 0.45 0.43 0.59 0.68 0.65 0.62 0.36 0.39 0.41 0.35 0.38 0.29 0.26 0.19 0.24 0.15 0.18 0.24 0.29 0.37 0.29 0.28 0.30 0.34 0.39 0.41 0.40 0.41 0.41 0.44 0.46
1.20 1.19 1.22 1.29 1.31 1.17 0.96 0.83 0.80 0.76 0.73 0.70 0.67 0.69 0.70 0.67 0.65 0.65 0.60 0.68 0.62 0.52 0.35 0.39 0.64 0.58 0.70 0.69 0.63 0.56 0.51 0.54 0.50 0.46 0.36 0.32 0.29 0.35 0.25 0.25 0.23 0.26 0.29 0.26 0.25 0.27 0.28 0.28 0.29 0.33 0.34 0.36 0.37 0.39
1.16 1.17 1.22 1.30 1.35 1.12 0.92 0.81 0.78 0.74 0.70 0.68 0.68 0.69 0.70 0.67 0.66 0.67 0.69 0.74 0.77 0.55 0.38 0.42 0.55 0.63 0.68 0.68 0.64 0.64 0.62 0.57 0.54 0.47 0.45 0.42 0.47 0.43 0.43 0.41 0.35 0.38 0.28 0.23 0.20 0.27 0.27 0.27 0.31 0.37 0.36 0.37 0.39 0.39
1.14 1.18 1.21 1.31 1.31 1.11 0.91 0.79 0.77 0.72 0.69 0.65 0.68 0.71 0.70 0.68 0.67 0.66 0.51 0.76 0.85 0.76 0.50 0.35 0.58 0.59 0.65 0.69 0.70 0.68 0.70 0.69 0.66 0.59 0.57 0.59 0.63 0.56 0.46 0.41 0.51 0.48 0.48 0.46 0.34 0.35 0.35 0.38 0.40 0.43 0.40 0.42 0.43 0.43
1.14 1.14 1.22 1.31 1.31 1.09 0.92 0.80 0.76 0.74 0.71 0.67 0.68 0.70 0.70 0.71 0.68 0.52 0.54 0.75 0.90 0.85 0.55 0.40 0.45 0.67 0.73 0.70 0.70 0.70 0.75 0.73 0.70 0.65 0.61 0.63 0.63 0.63 0.53 0.41 0.56 0.60 0.61 0.59 0.58 0.49 0.41 0.43 0.41 0.45 0.45 0.48 0.50 0.49
1.08 1.12 1.21 1.34 1.28 1.05 0.90 0.77 0.77 0.72 0.70 0.68 0.70 0.70 0.72 0.77 0.77 0.69 0.88 0.96 0.92 0.77 0.66 0.45 0.44 0.53 0.70 0.59 0.59 0.75 0.68 0.72 0.72 0.69 0.71 0.64 0.64 0.62 0.47 0.58 0.63 0.66 0.69 0.69 0.65 0.60 0.54 0.53 0.53 0.50 0.52 0.51 0.47 0.45
1.04 1.07 1.21 1.35 1.22 0.99 0.86 0.77 0.75 0.69 0.71 0.71 0.71 0.72 0.75 0.74 0.68 0.72 0.93 0.96 0.96 0.76 0.51 0.50 0.40 0.37 0.69 0.66 0.68 0.70 0.71 0.53 0.68 0.57 0.60 0.63 0.51 0.42 0.50 0.55 0.60 0.66 0.65 0.69 0.68 0.65 0.59 0.55 0.55 0.52 0.50 0.47 0.45 0.42
1.04 1.07 1.23 1.34 1.12 0.90 0.82 0.76 0.71 0.68 0.67 0.69 0.68 0.58 0.52 0.75 0.94 0.93 0.82 0.72 0.71 0.68 0.62 0.47 0.51 0.41 0.57 0.58 0.56 0.53 0.58 0.51 0.44 0.53 0.62 0.49 0.45 0.51 0.53 0.54 0.57 0.65 0.70 0.73 0.62 0.57 0.56 0.54 0.52 0.52 0.50 0.52 0.50 0.45
1.15 1.17 1.24 1.19 0.97 0.90 0.82 0.72 0.71 0.68 0.64 0.60 0.49 0.48 0.79 0.95 0.87 0.76 0.60 0.55 0.56 0.48 0.53 0.53 0.51 0.42 0.64 0.45 0.47 0.54 0.47 0.49 0.37 0.46 0.43 0.40 0.38 0.42 0.49 0.51 0.59 0.62 0.65 0.67 0.66 0.66 0.63 0.59 0.56 0.55 0.53 0.52 0.51 0.48
1.19 1.23 1.17 1.11 1.00 0.87 0.78 0.73 0.70 0.61 0.56 0.61 0.60 0.73 0.85 0.78 0.71 0.59 0.54 0.57 0.51 0.42 0.55 0.50 0.50 0.52 0.58 0.65 0.49 0.53 0.42 0.45 0.34 0.50 0.39 0.30 0.35 0.46 0.48 0.52 0.57 0.62 0.67 0.68 0.67 0.62 0.63 0.63 0.63 0.61 0.58 0.56 0.55 0.51
1.11 1.05 1.04 0.93 0.82 0.79 0.72 0.70 0.67 0.66 0.69 0.61 0.56 0.64 0.65 0.67 0.52 0.48 0.43 0.47 0.47 0.56 0.55 0.55 0.43 0.52 0.58 0.58 0.50 0.47 0.36 0.35 0.49 0.36 0.30 0.31 0.41 0.47 0.50 0.53 0.57 0.65 0.67 0.65 0.64 0.66 0.65 0.68 0.71 0.65 0.60 0.61 0.58 0.53
1.07 1.00 0.87 0.82 0.76 0.73 0.73 0.72 0.68 0.64 0.52 0.38 0.37 0.45 0.52 0.50 0.56 0.58 0.57 0.55 0.62 0.59 0.53 0.48 0.44 0.47 0.52 0.43 0.46 0.36 0.42 0.42 0.30 0.25 0.25 0.38 0.42 0.46 0.53 0.57 0.57 0.56 0.58 0.57 0.60 0.64 0.64 0.66 0.68 0.68 0.69 0.68 0.67 0.58
0.89 0.90 0.88 0.83 0.74 0.66 0.70 0.67 0.70 0.62 0.46 0.35 0.38 0.35 0.53 0.67 0.71 0.73 0.74 0.68 0.65 0.62 0.45 0.41 0.45 0.47 0.40 0.37 0.40 0.36 0.31 0.25 0.26 0.24 0.34 0.43 0.47 0.49 0.48 0.52 0.54 0.57 0.58 0.58 0.61 0.60 0.59 0.60 0.62 0.64 0.68 0.71 0.70 0.64
0.85 0.92 0.86 0.87 0.77 0.70 0.69 0.67 0.64 0.59 0.47 0.37 0.37 0.43 0.67 0.66 0.65 0.66 0.65 0.59 0.61 0.48 0.43 0.40 0.34 0.30 0.29 0.30 0.26 0.25 0.23 0.22 0.28 0.37 0.44 0.48 0.45 0.43 0.44 0.46 0.49 0.55 0.57 0.61 0.58 0.62 0.65 0.63 0.64 0.68 0.68 0.68 0.68 0.65
0.90 0.95 0.97 0.92 0.82 0.69 0.67 0.61 0.54 0.44 0.38 0.36 0.49 0.64 0.64 0.68 0.66 0.65 0.64 0.59 0.57 0.44 0.34 0.32 0.23 0.23 0.32 0.24 0.23 0.29 0.26 0.32 0.38 0.41 0.46 0.44 0.45 0.46 0.49 0.53 0.55 0.55 0.57 0.59 0.60 0.63 0.64 0.65 0.69 0.70 0.63 0.63 0.66 0.63
0.92 0.99 0.97 0.93 0.78 0.62 0.62 0.62 0.53 0.45 0.33 0.45 0.50 0.69 0.79 0.75 0.68 0.64 0.66 0.68 0.59 0.52 0.50 0.39 0.36 0.24 0.21 0.18 0.22 0.31 0.38 0.42 0.43 0.44 0.42 0.47 0.50 0.52 0.52 0.50 0.52 0.53 0.51 0.53 0.52 0.60 0.63 0.64 0.65 0.66 0.66 0.65 0.67 0.66
0.80 0.85 0.91 0.81 0.64 0.53 0.46 0.58 0.56 0.33 0.34 0.59 0.74 0.81 0.79 0.75 0.78 0.72 0.69 0.71 0.70 0.67 0.62 0.54 0.38 0.27 0.26 0.31 0.32 0.36 0.40 0.42 0.42 0.44 0.48 0.50 0.50 0.48 0.45 0.44 0.46 0.45 0.46 0.47 0.48 0.51 0.59 0.65 0.62 0.65 0.65 0.65 0.64 0.66
0.78 0.83 0.86 0.75 0.66 0.51 0.42 0.44 0.66 0.51 0.44 0.59 0.76 0.77 0.79 0.76 0.76 0.73 0.69 0.71 0.70 0.63 0.57 0.52 0.44 0.43 0.38 0.36 0.38 0.39 0.44 0.49 0.45 0.42 0.43 0.44 0.45 0.41 0.41 0.42 0.42 0.43 0.43 0.46 0.49 0.53 0.56 0.56 0.59 0.62 0.64 0.65 0.63 0.61
0.79 0.97 0.99 0.85 0.68 0.59 0.50 0.46 0.49 0.60 0.62 0.60 0.74 0.78 0.74 0.77 0.74 0.69 0.68 0.77 0.68 0.60 0.53 0.56 0.55 0.52 0.56 0.41 0.44 0.47 0.50 0.51 0.46 0.44 0.42 0.37 0.37 0.39 0.39 0.41 0.43 0.42 0.40 0.42 0.45 0.53 0.55 0.57 0.59 0.62 0.62 0.61 0.60 0.62
0.77 0.96 0.92 0.82 0.62 0.59 0.51 0.54 0.42 0.48 0.50 0.54 0.60 0.65 0.63 0.62 0.67 0.72 0.76 0.67 0.61 0.61 0.63 0.61 0.59 0.58 0.53 0.38 0.44 0.51 0.53 0.48 0.46 0.41 0.38 0.35 0.32 0.34 0.37 0.40 0.38 0.35 0.37 0.42 0.51 0.53 0.55 0.58 0.58 0.59 0.59 0.57 0.57 0.58
0.81 0.82 0.80 0.71 0.52 0.50 0.46 0.67 0.54 0.58 0.44 0.58 0.72 0.64 0.62 0.67 0.74 0.81 0.67 0.68 0.68 0.70 0.67 0.66 0.65 0.63 0.54 0.45 0.47 0.45 0.44 0.41 0.35 0.34 0.34 0.33 0.34 0.36 0.36 0.38 0.39 0.36 0.39 0.45 0.51 0.53 0.52 0.54 0.53 0.52 0.54 0.52 0.50 0.47
0.79 0.69 0.58 0.50 0.51 0.43 0.61 0.55 0.66 0.66 0.71 0.71 0.68 0.62 0.63 0.66 0.73 0.63 0.55 0.59 0.62 0.66 0.63 0.63 0.64 0.56 0.50 0.40 0.36 0.33 0.35 0.37 0.34 0.34 0.35 0.34 0.33 0.34 0.36 0.36 0.39 0.43 0.47 0.47 0.47 0.50 0.52 0.52 0.51 0.51 0.51 0.46 0.43 0.42
0.61 0.56 0.50 0.36 0.51 0.58 0.59 0.51 0.54 0.63 0.64 0.66 0.62 0.61 0.65 0.76 0.63 0.56 0.49 0.55 0.58 0.59 0.59 0.61 0.58 0.50 0.35 0.35 0.33 0.33 0.37 0.35 0.33 0.30 0.34 0.35 0.35 0.36 0.34 0.36 0.40 0.45 0.48 0.43 0.41 0.42 0.43 0.45 0.45 0.44 0.44 0.42 0.42 0.42
0.47 0.50 0.41 0.41 0.40 0.40 0.45 0.48 0.61 0.66 0.67 0.62 0.65 0.72 0.72 0.64 0.57 0.50 0.53 0.58 0.60 0.58 0.56 0.55 0.49 0.38 0.33 0.34 0.29 0.31 0.34 0.39 0.37 0.31 0.33 0.36 0.35 0.31 0.29 0.29 0.33 0.39 0.46 0.44 0.41 0.40 0.41 0.42 0.42 0.41 0.42 0.44 0.44 0.45
0.44 0.34 0.39 0.49 0.45 0.47 0.50 0.60 0.68 0.63 0.59 0.61 0.68 0.65 0.62 0.54 0.53 0.59 0.68 0.69 0.65 0.61 0.60 0.56 0.41 0.35 0.33 0.32 0.36 0.35 0.39 0.41 0.37 0.34 0.35 0.38 0.37 0.34 0.33 0.32 0.34 0.41 0.48 0.47 0.46 0.45 0.45 0.45 0.43 0.43 0.44 0.46 0.47 0.47
0.51 0.41 0.29 0.37 0.41 0.50 0.46 0.53 0.59 0.60 0.70 0.79 0.75 0.64 0.58 0.55 0.56 0.69 0.73 0.73 0.69 0.65 0.55 0.47 0.42 0.38 0.34 0.35 0.38 0.36 0.37 0.40 0.38 0.37 0.37 0.37 0.35 0.35 0.37 0.39 0.44 0.46 0.48 0.48 0.47 0.47 0.46 0.46 0.46 0.46 0.45 0.45 0.46 0.49
0.46 0.45 0.39 0.28 0.32 0.37 0.44 0.50 0.57 0.74 0.83 0.81 0.69 0.66 0.67 0.74 0.82 0.81 0.82 0.74 0.69 0.59 0.52 0.44 0.40 0.40 0.37 0.39 0.41 0.41 0.38 0.36 0.32 0.30 0.29 0.28 0.29 0.31 0.37 0.38 0.39 0.43 0.46 0.42 0.42 0.45 0.48 0.48 0.48 0.47 0.46 0.46 0.47 0.48
0.43 0.44 0.31 0.28 0.26 0.26 0.34 0.50 0.62 0.76 0.83 0.85 0.87 0.85 0.82 0.83 0.90 0.93 0.83 0.72 0.64 0.60 0.59 0.54 0.49 0.46 0.44 0.44 0.44 0.43 0.39 0.38 0.37 0.34 0.31 0.29 0.30 0.33 0.35 0.37 0.37 0.39 0.41 0.42 0.43 0.46 0.49 0.50 0.50 0.50 0.49 0.47 0.47 0.47
0.45 0.36 0.29 0.26 0.22 0.27 0.37 0.51 0.61 0.66 0.70 0.76 0.84 0.80 0.77 0.83 0.86 0.88 0.82 0.77 0.72 0.68 0.64 0.59 0.56 0.56 0.53 0.49 0.45 0.46 0.43 0.38 0.37 0.37 0.38 0.37 0.36 0.34 0.35 0.37 0.39 0.40 0.41 0.42 0.43 0.45 0.46 0.47 0.47 0.48 0.48 0.47 0.47 0.46
0.39 0.32 0.27 0.24 0.27 0.41 0.56 0.57 0.59 0.60 0.67 0.72 0.73 0.82 0.82 0.80 0.74 0.82 0.87 0.80 0.74 0.70 0.68 0.67 0.64 0.66 0.64 0.58 0.51 0.49 0.51 0.47 0.38 0.36 0.38 0.39 0.37 0.37 0.37 0.38 0.39 0.40 0.41 0.42 0.43 0.44 0.45 0.45 0.46 0.47 0.48 0.48 0.47 0.47
0.33 0.27 0.26 0.26 0.32 0.39 0.51 0.52 0.57 0.63 0.73 0.75 0.77 0.80 0.81 0.80 0.76 0.90 0.96 0.94 0.83 0.77 0.75 0.75 0.74 0.73 0.70 0.64 0.56 0.51 0.52 0.50 0.45 0.39 0.37 0.40 0.41 0.39 0.39 0.40 0.40 0.41 0.41 0.41 0.42 0.43 0.44 0.45 0.45 0.47 0.48 0.48 0.47 0.47
Wind_Speed
31 30 29 27 22 17 14 11 9 7 7 5 4 4 5 8 9 8 6 7 6 5 3 2 2 4 3 3 3 4 3 2 2 2 1 1 2 5 7 9 10 12 12 13 15 16 18 16 16 18 14 16 18 19
29 29 27 23 16 13 12 10 8 6 5 4 4 4 5 6 8 7 6 7 6 5 4 3 3 3 3 1 1 0 2 0 0 0 1 0 0 1 2 3 7 9 10 11 14 13 13 15 15 15 16 18 19 21
28 26 24 18 15 12 10 8 7 6 5 4 4 4 5 6 7 7 7 8 6 6 5 5 5 5 6 5 5 4 4 4 4 3 3 3 3 4 4 5 4 6 7 9 10 13 15 15 14 14 14 15 16 17
26 24 21 15 13 10 8 7 6 5 5 4 4 4 5 6 7 8 8 8 7 6 5 5 6 6 7 8 8 7 6 6 6 7 7 7 7 8 7 7 8 7 7 8 10 11 10 13 14 13 13 14 15 16
24 22 18 13 11 8 8 7 7 5 5 5 4 4 5 6 7 8 7 7 7 6 7 9 10 8 8 8 8 8 8 8 9 9 9 9 9 9 10 11 12 13 12 11 11 11 11 10 12 13 12 13 13 14
21 19 15 12 9 8 7 7 6 6 5 4 4 5 5 6 7 6 5 6 6 8 9 8 6 7 8 7 9 10 11 12 12 12 12 12 12 12 11 12 14 14 15 15 13 15 14 13 14 15 15 15 15 16
18 17 14 11 9 7 6 6 6 5 4 4 4 5 5 6 6 5 5 7 7 9 7 6 7 9 10 10 12 13 14 14 15 14 13 12 13 15 15 15 16 18 20 19 18 16 17 17 17 18 17 16 17 17
16 15 13 10 9 7 6 6 5 4 3 3 4 4 4 3 4 5 6 5 6 8 7 8 9 10 11 11 11 11 12 14 16 16 16 14 13 14 15 16 17 18 20 21 23 22 18 18 18 17 17 17 17 18
15 14 11 9 9 7 6 6 5 4 3 3 4 3 2 4 5 4 5 5 6 8 8 9 11 11 13 12 11 10 8 9 7 5 5 6 9 10 13 16 18 18 19 20 21 23 22 20 19 19 17 17 17 17
14 12 9 10 9 7 5 5 5 4 3 3 3 3 2 4 2 3 5 7 8 8 9 11 13 12 13 12 9 9 8 7 6 6 7 7 8 11 15 16 17 16 15 15 15 18 19 20 20 19 19 18 18 18
11 9 8 9 8 6 6 6 5 4 2 2 2 2 3 2 2 3 5 7 8 8 10 12 13 14 13 11 9 8 7 6 5 5 7 6 8 12 13 14 12 9 8 9 11 13 15 16 17 18 19 19 18 18
3 5 7 5 5 5 5 5 5 4 2 1 2 2 1 1 3 3 6 8 8 9 11 12 13 13 11 10 8 7 6 5 5 7 6 7 10 12 13 12 10 7 9 13 14 15 15 16 17 18 18 19 19 19
4 5 4 3 2 2 2 4 6 3 1 2 1 0 1 1 3 5 7 7 9 10 11 12 13 12 10 10 8 7 6 6 6 5 7 8 12 12 11 10 7 8 9 9 10 13 16 18 20 21 21 20 20 20
2 1 2 2 3 3 5 6 4 1 1 1 1 1 1 2 4 6 8 9 11 11 12 13 12 10 11 9 9 7 7 6 6 7 8 11 13 14 13 12 11 11 12 13 14 16 18 20 22 22 22 21 21 20
1 1 2 3 4 5 6 5 2 2 2 1 1 1 2 2 5 7 10 10 10 12 13 11 10 10 10 10 9 8 7 7 8 10 13 14 16 16 16 16 16 16 16 17 17 18 20 21 21 23 23 22 21 20
2 1 1 2 4 5 5 4 3 2 2 2 2 1 2 3 5 8 9 9 10 12 12 11 10 10 10 11 9 9 9 9 11 13 15 16 17 17 18 18 17 17 17 19 20 22 24 23 23 22 19 20 20 20
2 2 3 2 2 3 4 3 3 3 2 2 2 2 3 4 7 7 8 9 10 12 13 12 11 11 11 10 11 10 10 13 14 15 15 15 16 17 17 17 17 17 18 20 21 20 21 20 18 18 19 19 19 20
3 4 5 4 3 3 4 4 3 3 3 4 3 3 3 4 4 6 7 8 10 12 12 13 11 11 12 11 11 12 12 13 13 14 14 16 16 17 17 17 18 18 18 19 19 19 19 16 14 13 14 16 16 16
5 5 6 6 5 4 4 4 4 4 4 4 4 4 3 4 5 7 7 8 11 12 12 12 11 12 12 12 13 13 12 12 14 14 15 16 16 16 17 17 16 17 17 17 17 16 14 13 13 14 12 9 10 15
4 4 6 6 6 4 4 4 4 4 4 4 4 4 5 5 6 7 8 9 10 12 12 11 11 13 13 13 12 12 12 12 13 14 14 15 16 16 16 16 16 17 17 17 16 12 9 6 5 5 7 8 8 11
4 4 4 5 5 6 5 4 4 5 4 5 5 5 6 7 8 7 7 9 11 12 11 11 11 12 13 12 12 12 12 12 13 14 13 13 14 15 15 15 16 16 18 18 14 9 11 8 2 2 4 5 7 7
5 5 5 6 5 5 6 6 5 4 4 5 5 6 7 6 7 7 7 9 11 12 12 11 10 10 12 11 12 12 12 12 12 12 12 12 13 14 15 15 16 16 17 16 15 12 11 9 11 10 7 5 4 3
7 6 6 6 6 5 6 5 4 4 4 3 3 4 5 5 6 6 7 8 10 12 11 10 8 10 11 10 11 12 12 11 12 12 11 11 12 13 14 15 16 16 15 15 13 10 10 10 7 4 3 1 1 3
7 7 7 6 7 6 5 5 5 4 4 5 5 5 5 5 6 7 8 8 9 10 10 8 7 9 10 9 10 11 11 11 11 11 11 10 11 13 14 15 15 15 14 14 14 12 11 10 9 6 5 5 5 5
6 7 7 7 7 6 6 5 5 5 5 4 5 5 5 6 6 7 6 7 9 9 8 8 8 8 8 9 9 10 10 10 11 11 10 10 10 11 12 13 14 13 13 14 14 13 12 11 10 9 9 8 7 6
7 8 8 7 6 7 6 5 5 4 4 5 5 5 6 6 7 6 6 7 8 8 7 8 9 8 7 8 7 8 9 10 10 11 10 9 9 11 11 11 11 11 12 12 12 13 13 12 11 11 10 10 9 7
8 7 8 8 6 6 6 6 6 6 6 5 4 5 6 6 6 6 6 7 8 7 7 7 8 7 6 6 7 7 8 8 10 11 10 9 9 10 10 10 9 10 10 11 11 11 11 11 12 12 11 10 10 9
9 7 8 7 7 7 7 6 5 4 4 4 6 7 6 6 6 7 7 6 7 6 6 6 7 7 6 6 6 6 6 7 8 9 10 9 9 8 8 8 9 9 9 10 11 11 11 11 12 12 12 11 10 10
9 8 8 7 7 7 7 7 6 5 5 6 7 7 7 6 7 7 8 6 5 5 5 6 6 7 7 6 6 6 5 6 6 7 7 8 7 7 7 7 7 8 8 9 10 11 11 11 12 13 13 12 11 10
10 10 8 7 6 6 6 7 6 7 8 9 10 10 10 10 10 10 8 6 6 6 6 5 5 6 6 6 6 6 6 6 6 6 7 7 6 5 5 5 6 7 7 8 9 10 11 11 12 13 13 13 12 12
8 9 8 7 6 6 7 8 9 9 10 11 11 11 10 10 10 10 9 9 9 8 7 7 7 7 7 7 8 7 7 7 7 7 6 6 5 4 3 3 4 5 6 7 7 8 10 11 12 13 13 14 14 13
9 10 8 6 6 6 6 6 7 9 10 10 11 12 12 12 13 12 12 12 12 11 11 10 9 10 9 9 9 9 9 9 8 8 8 7 6 4 4 3 3 4 4 5 6 8 9 11 13 13 14 15 15 13
7 7 7 7 7 7 7 8 8 9 10 11 10 10 9 10 11 11 11 11 12 13 14 13 13 12 11 11 11 11 11 10 10 10 9 8 7 5 4 4 4 4 5 6 7 8 9 10 12 13 14 15 14 12
Wind_Direction
318 320 321 320 316 314 310 309 309 308 316 315 304 310 337 353 359 2 6 11 12 11 12 3 41 46 53 56 60 76 87 82 96 73 104 177 222 232 242 241 239 232 231 236 236 238 239 226 227 234 235 240 249 255
318 321 322 322 318 312 313 306 303 303 313 311 304 313 328 342 352 356 356 352 346 337 340 312 303 319 334 306 12 351 350 26 305 59 278 220 237 211 234 246 232 238 239 237 232 237 231 221 230 237 244 251 255 260
318 320 321 316 313 308 309 304 298 296 305 305 300 310 324 335 346 352 350 347 341 336 321 299 289 284 280 276 269 283 279 271 262 275 253 267 268 254 252 264 250 243 234 242 238 232 230 231 238 240 244 252 257 263
316 318 317 310 307 301 302 301 296 292 296 294 292 306 319 328 336 341 342 343 340 331 325 325 309 302 296 271 268 272 273 271 263 266 270 269 270 257 263 271 258 257 226 235 243 239 234 239 239 243 249 254 260 267
313 315 312 303 299 289 292 295 295 293 290 282 286 299 311 322 331 338 341 347 355 348 328 319 310 303 295 276 269 265 259 269 271 268 267 269 269 265 266 264 264 249 245 241 247 236 237 244 236 235 244 254 263 269
309 311 308 294 288 287 284 288 292 297 288 275 283 296 304 317 326 330 339 352 352 347 334 334 332 329 327 284 280 272 272 274 272 270 271 270 266 264 265 265 267 253 248 249 255 244 249 244 244 246 252 258 264 269
306 308 302 287 258 273 279 289 296 298 284 279 288 299 303 316 329 336 341 337 336 343 344 337 336 334 326 312 297 287 279 278 272 268 269 268 266 267 269 275 266 261 256 254 252 246 248 246 254 251 255 260 268 273
299 302 296 276 241 260 278 285 288 292 281 288 304 307 311 321 334 340 340 335 337 352 348 337 330 333 332 326 317 306 295 290 280 265 268 268 279 270 272 276 274 271 263 256 247 245 253 249 247 251 255 262 269 273
293 293 276 254 238 254 268 278 276 274 270 294 311 315 313 332 339 352 14 8 357 352 347 344 341 337 332 328 323 321 318 318 317 299 279 264 278 277 278 283 283 277 266 254 251 245 240 244 246 251 255 260 268 274
289 282 262 231 233 241 265 269 263 251 267 291 310 310 313 336 349 1 358 356 352 352 350 345 344 339 338 335 334 330 326 319 312 310 301 294 290 296 294 293 293 281 275 247 237 233 236 243 248 250 252 259 265 272
280 266 238 217 219 240 263 259 242 229 243 290 311 317 322 332 337 346 353 349 349 343 343 341 342 341 345 340 337 334 336 330 325 326 321 308 299 312 314 316 303 285 250 233 240 247 242 243 247 252 256 258 265 270
233 173 180 195 213 255 261 241 215 199 227 299 321 323 339 341 347 345 348 347 342 343 342 342 344 343 345 343 339 337 334 332 328 329 325 321 317 317 318 321 306 275 270 265 259 250 251 252 256 257 260 262 266 272
138 156 180 210 229 246 216 167 164 168 190 313 304 324 343 0 13 343 346 344 339 339 341 342 344 347 350 349 344 334 324 333 329 329 319 319 325 325 324 324 316 288 279 270 264 264 266 265 262 263 263 263 266 270
121 199 199 214 204 185 161 156 158 184 304 279 231 298 285 317 325 341 341 341 343 344 344 343 347 348 349 347 343 332 333 321 316 319 319 324 324 324 317 309 302 288 284 283 282 278 275 271 267 265 262 262 263 264
316 282 260 243 218 199 182 183 208 286 281 246 223 254 257 310 335 339 343 342 346 349 348 350 353 348 352 349 347 342 333 321 316 316 317 320 319 319 315 308 296 288 286 286 286 285 283 279 275 267 260 257 261 257
296 232 205 140 162 179 189 209 246 262 256 225 228 255 285 316 346 346 346 350 356 356 356 353 354 351 353 350 346 342 337 330 328 321 321 321 321 321 319 315 308 297 290 289 291 290 284 281 276 261 255 252 253 254
257 247 210 194 194 200 209 220 237 240 229 219 220 236 303 309 327 346 356 358 1 358 358 358 354 356 353 349 345 342 336 331 329 328 328 328 326 327 325 322 318 311 304 299 297 292 289 282 267 252 258 254 259 251
263 246 220 221 228 222 220 220 234 237 238 231 238 254 296 310 326 341 349 355 357 357 359 1 1 354 351 347 346 341 335 336 336 336 336 335 333 333 331 328 324 320 316 311 306 298 288 279 267 259 258 258 248 231
268 254 236 234 235 229 220 221 228 242 237 235 255 258 283 309 306 330 336 343 345 349 356 357 357 354 349 345 344 345 343 343 345 346 343 344 343 342 341 341 342 339 335 331 325 312 297 283 273 260 254 248 223 218
261 263 244 223 214 217 221 228 235 243 244 240 255 265 279 304 317 315 320 329 337 342 344 346 345 349 348 349 349 349 350 348 347 347 350 351 353 353 355 354 354 353 350 348 344 346 347 329 254 240 219 211 209 202
262 235 213 214 218 221 228 234 243 243 260 251 261 275 291 300 302 307 313 328 334 335 334 334 335 342 349 353 353 352 352 351 351 353 356 359 1 4 6 6 4 5 5 7 9 22 30 28 81 141 164 173 181 207
251 235 227 225 226 224 234 232 248 258 256 263 269 281 297 299 308 308 307 317 328 333 333 333 336 341 348 350 352 353 356 359 2 4 7 7 11 12 13 12 12 14 18 25 40 53 46 59 79 79 103 123 151 202
241 236 226 223 226 222 230 226 243 237 244 257 284 295 297 305 323 326 319 322 328 334 338 339 343 349 354 355 359 1 2 6 7 9 11 16 17 18 18 17 17 21 28 37 39 43 48 48 57 60 90 93 245 282
226 226 221 219 215 225 225 231 237 242 248 264 280 291 298 313 325 325 324 330 338 342 342 345 345 353 356 357 358 2 5 8 12 12 13 17 19 21 22 22 25 32 38 37 38 47 48 43 46 47 37 19 353 334
224 221 211 225 218 221 226 233 235 240 255 273 288 287 293 298 307 317 323 337 341 344 346 347 343 342 349 356 358 3 7 11 12 15 16 18 22 23 25 26 32 37 37 37 43 47 45 41 37 39 30 18 16 15
218 214 204 211 211 216 222 230 226 243 266 283 283 293 302 302 303 302 314 331 335 340 341 344 347 346 347 352 356 360 5 10 14 15 16 17 20 23 25 27 34 37 37 40 40 41 41 40 38 33 32 31 30 29
218 214 211 215 219 222 231 234 247 259 268 278 299 293 301 299 297 307 313 320 332 336 335 342 351 355 355 356 359 3 7 10 12 16 20 21 21 22 26 30 37 39 39 38 38 38 38 38 36 34 34 33 33 30
214 211 210 208 215 223 233 238 245 247 273 285 303 300 294 289 302 313 315 317 326 337 341 342 348 353 357 2 4 4 4 6 11 16 19 20 19 23 28 32 35 35 37 37 35 33 34 32 28 26 25 25 24 23
209 208 209 219 222 227 229 230 236 251 276 292 306 309 300 291 306 306 309 297 311 323 331 337 342 350 356 356 354 347 348 353 357 360 2 8 13 17 24 29 32 33 36 36 32 32 31 29 27 23 22 21 20 18
211 204 208 214 219 229 235 232 256 272 282 295 301 301 294 291 299 303 293 273 282 295 305 315 324 330 338 346 346 338 327 324 327 337 347 351 356 10 20 27 30 33 36 34 36 36 32 27 22 19 17 14 10 6
197 196 207 218 232 244 256 266 270 279 287 292 293 297 296 292 293 295 281 272 276 282 286 293 302 306 312 319 328 331 325 315 309 308 321 340 345 343 350 5 15 23 27 26 23 20 15 11 8 7 7 6 4 2
199 206 211 226 246 262 271 277 282 291 298 300 296 289 294 294 289 287 280 271 268 269 273 278 284 296 291 301 305 310 324 323 312 301 289 294 312 317 315 322 328 342 354 359 1 1 1 3 3 3 2 1 1 2
201 211 226 246 258 269 277 281 288 299 301 305 306 306 304 304 304 296 287 282 272 273 273 267 278 288 292 290 293 302 302 309 312 307 290 272 274 284 291 300 308 316 324 330 336 341 342 347 355 359 0 2 5 11